Temperature
14 14 14 14 12 10 11 12 13 14 15 17 18 18 17 18 18 20 22 21 21 20 18 17 16 16 16 15 15 16 15 15 15 15 15 15 14 14 14 14 14 14 13 13 13 13 13 13 12
13 13 14 13 11 11 11 11 13 14 17 18 18 18 18 19 21 21 22 21 20 19 18 17 16 15 15 15 15 15 15 15 15 15 14 14 14 14 13 13 13 13 13 13 12 12 12 12 12
13 13 13 11 10 12 13 13 13 15 17 17 17 18 18 19 20 21 22 21 19 18 17 16 15 15 15 15 15 15 15 15 14 14 14 13 13 13 13 13 12 12 12 12 12 12 12 12 12
13 13 12 10 11 12 13 14 14 15 16 17 17 17 18 19 20 21 21 20 19 18 17 16 15 15 15 15 15 15 15 14 14 14 13 13 13 13 12 12 12 12 12 12 12 12 12 11 11
12 12 11 11 11 12 12 14 15 15 16 17 17 16 17 19 19 20 20 19 19 18 16 15 15 15 15 15 15 14 14 14 14 13 13 13 13 12 12 12 12 12 12 12 12 11 11 11 11
11 10 11 12 12 12 12 15 15 14 15 16 17 16 18 18 19 19 18 18 17 17 16 15 15 14 14 14 14 14 14 14 13 13 13 12 12 12 12 12 12 12 11 11 11 11 11 11 11
10 10 11 11 12 13 13 15 14 14 14 16 17 16 17 18 18 18 17 17 16 15 15 14 14 14 14 14 14 14 14 13 13 13 12 12 12 12 12 12 12 11 11 11 11 11 11 11 11
10 10 10 11 11 12 14 15 16 16 15 17 17 16 16 18 17 17 16 15 15 15 14 14 14 14 14 14 14 13 13 13 13 12 12 12 12 12 12 11 11 11 11 11 11 11 11 11 11
10 10 10 11 11 13 14 15 16 16 16 17 17 17 18 17 16 15 14 14 14 14 14 14 14 14 14 13 13 13 13 13 12 12 12 12 12 12 11 11 11 11 11 11 11 11 11 11 11
9 10 11 12 12 13 14 14 15 15 14 15 16 16 17 16 15 14 14 14 14 14 14 14 14 14 13 13 13 13 13 12 12 12 12 12 12 11 11 11 11 11 11 11 11 11 11 11 11
9 9 11 12 12 13 13 14 14 14 14 15 15 16 15 15 14 14 14 14 15 14 14 14 14 14 13 13 13 13 13 12 12 12 12 12 11 11 11 11 11 11 11 11 11 11 11 11 11
8 9 10 11 12 12 12 13 13 13 15 16 16 16 15 14 14 14 14 14 14 14 14 14 14 13 13 13 13 13 13 12 12 12 12 12 12 11 11 11 11 11 11 11 11 11 11 11 10
8 9 10 11 11 11 12 12 12 13 14 15 15 15 14 14 14 14 14 14 14 14 14 14 13 13 13 13 13 13 13 13 13 12 12 12 12 11 11 11 11 11 11 11 11 11 11 10 10
8 8 9 10 10 11 11 11 12 13 14 14 14 14 14 14 14 13 13 13 13 13 13 14 13 13 13 13 13 13 13 12 12 12 12 12 12 11 11 11 11 11 11 10 10 10 10 10 10
7 7 8 9 9 10 10 10 11 13 13 13 14 14 14 14 13 14 14 14 14 14 13 13 13 13 13 13 13 13 13 12 12 12 12 12 11 11 11 11 11 10 10 10 10 10 10 10 10
6 7 7 9 9 10 10 9 11 13 13 12 13 13 13 13 13 14 14 14 14 13 13 13 13 13 13 13 13 13 12 12 12 12 12 12 11 11 11 11 11 10 10 10 10 10 10 10 9
6 6 6 8 9 9 9 9 10 12 12 12 12 12 13 13 13 13 14 14 14 14 13 13 13 13 13 13 13 12 12 12 12 12 12 12 12 11 11 11 11 10 10 10 10 10 10 9 9
5 6 6 7 8 9 8 9 10 11 11 11 11 12 12 13 14 14 14 14 14 14 14 13 13 13 13 13 12 12 12 12 12 12 12 12 12 11 11 11 10 10 10 10 10 9 9 9 9
6 6 6 7 8 8 8 9 10 10 10 10 11 11 12 13 14 14 14 14 14 13 13 13 13 13 13 12 12 12 12 12 12 12 12 12 12 11 11 11 10 10 10 10 9 9 9 9 9
5 5 5 7 8 8 8 8 9 9 10 11 11 11 12 13 13 13 14 14 14 14 13 13 14 13 13 13 13 13 13 12 12 12 12 12 12 11 11 11 11 10 10 10 9 9 9 9 9
5 5 5 6 7 8 7 8 9 9 10 11 11 12 12 13 13 13 14 14 14 14 14 14 14 14 14 14 13 12 12 12 12 12 12 12 12 12 11 11 11 10 10 10 10 9 9 9 9
5 6 6 6 6 6 7 6 8 9 9 10 10 11 12 13 13 13 13 14 14 14 14 14 14 14 14 14 13 13 13 13 14 13 13 13 12 12 11 11 11 10 10 10 10 10 9 9 9
5 6 6 6 5 5 6 6 7 8 9 10 10 11 12 13 13 13 14 14 14 15 14 15 15 15 14 14 14 14 14 14 14 13 13 13 12 12 12 11 11 11 10 10 10 10 9 9 9
6 6 6 5 5 5 5 6 7 7 8 9 10 11 12 12 13 13 14 14 14 14 14 14 14 15 15 14 14 14 14 14 14 14 13 13 13 12 12 12 11 11 11 10 10 10 9 9 9
5 4 4 4 4 5 6 6 7 8 9 9 10 11 12 12 13 13 13 13 14 14 14 14 14 14 15 14 14 15 15 15 15 14 14 14 13 13 13 12 12 11 11 11 10 10 9 9 9
5 5 4 4 4 5 6 6 7 8 9 10 10 11 11 12 12 12 13 13 14 14 14 15 15 15 15 15 15 15 15 15 14 15 14 14 14 14 14 13 12 12 11 11 10 10 9 9 9
4 4 5 4 4 5 5 6 7 8 8 8 9 10 10 11 11 12 12 13 14 14 14 15 15 15 15 15 15 15 15 15 15 15 14 14 14 14 14 13 13 12 11 11 10 10 10 9 9
5 4 4 4 4 5 5 6 6 8 8 8 8 8 9 10 11 11 12 12 13 14 14 15 15 16 16 16 16 15 15 15 15 15 14 14 14 14 13 13 12 12 11 11 10 10 10 9 9
4 4 4 3 4 4 5 6 8 8 8 8 8 8 9 9 10 10 11 12 13 13 14 14 15 15 15 16 16 15 15 15 15 15 14 14 14 14 13 13 12 12 11 11 10 10 10 10 9
4 4 3 3 3 3 4 6 8 7 7 8 8 8 8 8 9 10 10 11 12 13 13 14 14 15 15 16 16 15 15 15 15 15 15 14 14 13 13 13 12 12 11 11 11 10 10 10 9
Wind_Speed
3 4 4 3 3 1 8 8 6 5 6 5 4 6 7 9 7 6 0 10 13 16 19 24 26 25 24 23 22 21 20 20 20 19 19 19 18 18 17 17 17 17 17 17 17 17 17 17 17
2 4 4 4 4 8 9 8 10 10 6 1 1 3 4 7 5 3 4 9 14 16 18 21 26 25 25 24 23 22 21 21 20 19 19 18 18 18 17 17 17 17 17 16 16 16 16 16 16
2 3 4 4 7 12 9 6 11 8 7 3 2 3 4 6 4 5 6 12 14 15 16 21 26 26 25 24 23 23 22 21 20 20 19 19 18 18 18 17 17 17 16 16 16 16 15 15 15
2 2 2 6 17 12 8 4 4 3 4 4 4 5 5 4 3 4 8 14 15 14 15 21 26 26 25 24 23 23 22 21 20 20 19 19 18 18 18 17 17 16 16 15 15 15 15 15 15
2 3 6 12 19 9 7 7 3 3 3 2 3 4 5 4 1 7 12 14 15 14 14 20 26 26 25 25 24 23 22 21 21 20 19 19 18 18 17 17 16 16 15 15 14 15 14 14 15
3 4 9 19 19 10 8 7 6 7 6 4 3 4 5 2 4 9 12 12 12 13 13 18 25 25 25 25 24 23 22 22 21 20 19 19 18 18 17 16 15 15 15 14 14 14 14 14 14
5 6 13 14 14 12 9 7 9 9 10 8 6 4 4 2 4 9 11 10 10 11 11 13 19 22 24 24 24 23 22 22 21 20 19 19 18 18 17 16 15 15 15 14 14 14 13 13 13
5 5 12 13 13 12 6 7 7 11 11 6 8 7 6 4 7 10 11 11 10 10 10 11 13 17 19 20 23 22 22 21 21 19 19 19 18 17 16 16 15 15 14 14 14 13 12 12 12
4 9 18 15 10 7 5 7 5 4 5 4 6 6 4 9 13 13 12 12 13 13 10 11 12 13 15 17 20 21 21 21 20 19 19 17 15 15 14 14 15 14 14 14 13 12 12 11 11
7 15 20 9 6 5 5 6 5 3 5 5 3 1 5 13 15 17 18 19 19 18 15 13 13 13 14 15 16 16 17 17 16 16 17 15 14 13 13 14 14 14 13 12 12 12 12 11 10
7 13 9 8 7 6 7 7 5 6 9 8 6 5 9 13 15 18 19 19 20 19 17 15 14 14 14 11 11 11 12 14 15 16 16 15 13 12 11 10 10 11 11 9 10 10 10 9 8
8 12 10 8 7 8 8 7 7 10 12 6 7 8 12 16 18 19 19 19 16 16 17 15 14 14 13 12 10 9 9 10 10 15 17 14 9 8 8 7 8 8 8 8 8 8 8 7 7
13 12 13 12 10 10 10 12 12 15 12 7 5 8 14 16 17 16 15 16 16 18 18 17 16 15 13 12 10 10 10 10 12 14 16 15 9 7 6 6 7 8 8 7 6 6 6 5 5
7 9 11 11 13 11 13 15 12 15 9 7 8 12 14 15 16 14 15 16 18 19 19 17 17 16 14 12 10 10 10 11 13 13 15 17 13 9 7 6 6 6 7 7 7 6 5 4 4
6 9 12 12 12 8 8 15 17 14 7 9 10 12 14 14 14 16 17 17 18 18 18 18 18 16 16 14 12 11 11 12 11 12 16 16 15 13 9 6 5 6 8 8 7 6 5 3 3
3 6 9 8 8 7 7 18 14 7 8 11 11 11 12 13 15 14 15 15 15 16 17 18 17 18 17 14 12 10 11 11 11 13 15 16 16 15 11 7 6 8 9 7 5 4 3 2 2
3 7 10 8 6 5 8 14 12 8 9 11 10 11 12 12 12 13 14 14 15 16 17 18 18 18 17 14 12 10 11 11 11 13 13 15 16 16 12 8 7 10 7 5 5 3 3 3 2
6 7 8 9 5 6 11 15 14 8 10 11 11 11 11 14 16 13 14 14 14 15 16 17 17 18 16 13 10 9 9 9 10 11 13 15 16 16 13 8 9 10 6 5 4 4 3 3 3
8 9 11 12 8 8 13 17 16 12 10 11 11 12 13 15 14 11 12 13 13 14 16 17 18 18 16 14 13 13 13 11 10 10 13 16 16 16 13 8 8 8 7 7 7 4 4 2 2
10 11 12 11 8 8 12 17 15 13 13 13 14 13 14 13 10 10 12 13 15 17 18 19 19 20 19 16 14 11 9 8 8 8 11 16 16 16 14 10 9 8 7 7 7 5 4 2 3
10 10 10 11 10 7 9 11 12 10 11 11 12 13 13 14 14 12 13 15 15 17 19 19 21 20 21 17 12 9 7 6 8 10 11 13 16 16 14 13 10 10 9 9 8 8 7 4 2
10 8 10 11 8 5 3 7 8 8 10 11 11 11 12 13 12 12 13 14 16 18 18 19 20 20 20 19 17 17 14 13 13 11 11 11 14 15 16 14 13 11 9 9 9 8 6 6 4
6 6 6 8 7 6 5 6 8 6 8 10 10 11 11 11 11 12 13 15 16 16 16 17 18 19 19 20 20 20 16 13 8 8 11 12 12 14 15 15 13 12 10 10 10 8 7 6 5
5 3 5 4 2 5 6 6 7 5 7 7 8 9 10 9 10 11 11 11 12 12 13 15 17 19 19 21 21 21 20 15 13 13 14 13 10 11 14 14 13 12 10 11 10 10 10 7 6
1 0 2 2 2 6 4 6 8 7 6 7 8 8 8 7 8 9 9 10 11 12 13 15 17 19 20 21 22 22 21 19 18 16 15 13 11 11 15 14 13 12 11 11 10 10 9 9 8
3 3 2 2 3 4 3 7 7 6 6 5 6 5 5 5 7 9 9 10 11 12 14 15 17 19 20 21 22 21 20 17 15 15 14 15 13 13 14 15 14 13 12 11 10 9 9 8 8
2 3 2 2 3 4 5 6 7 5 5 5 5 5 6 6 6 7 8 9 11 13 15 17 18 18 19 21 21 20 20 18 16 15 14 13 11 11 13 14 14 13 13 12 11 9 9 9 8
3 1 1 1 3 4 5 5 4 5 5 6 7 7 8 8 7 6 6 8 9 11 13 14 17 18 18 19 19 17 19 19 16 15 16 15 14 13 14 14 14 13 13 12 12 9 9 9 8
1 1 2 2 3 3 4 6 3 3 4 7 8 9 9 9 8 6 6 7 7 8 10 12 14 15 15 17 17 17 17 17 16 15 16 15 14 14 15 15 15 14 14 13 12 11 11 11 9
2 3 3 2 5 4 5 7 3 3 5 7 10 11 10 9 7 6 6 5 5 7 8 11 13 14 15 16 16 17 16 15 16 16 16 15 15 15 15 15 15 14 14 13 13 13 12 12 11
Wind_Direction
282 100 87 69 70 224 234 230 213 224 224 222 193 184 192 191 181 213 320 148 146 155 163 166 164 162 160 157 154 150 147 145 142 140 137 134 131 128 126 122 118 114 111 109 108 105 104 102 99
149 111 78 89 166 222 243 222 218 219 212 200 214 209 217 239 232 203 158 158 151 156 161 163 164 162 159 158 155 152 149 147 145 143 140 138 134 131 128 124 119 115 112 110 109 107 106 104 101
133 124 137 153 202 217 229 219 223 236 244 250 266 243 221 232 210 193 181 157 150 156 159 163 163 160 158 157 156 154 152 149 147 145 142 140 136 134 129 125 121 118 116 115 113 111 108 107 104
111 100 128 206 229 223 216 212 206 249 262 226 204 268 265 262 211 190 157 156 153 156 157 164 162 161 159 158 156 155 153 151 149 146 143 141 138 134 130 127 123 121 119 120 118 115 111 110 107
100 154 211 233 237 230 227 240 242 253 251 205 176 251 272 307 147 148 153 158 157 156 157 164 163 162 160 159 158 156 155 153 151 148 145 142 138 135 132 129 127 127 126 124 123 120 116 113 110
172 181 219 235 238 232 230 225 243 253 254 243 212 226 258 310 142 153 157 158 157 156 157 164 164 163 162 161 160 159 158 156 154 151 148 144 140 137 137 136 136 134 131 129 127 123 120 116 112
195 209 231 240 245 240 230 203 218 235 248 235 193 211 269 250 170 151 151 149 153 157 158 163 164 164 163 163 162 162 161 159 156 154 150 146 143 142 141 140 139 136 133 131 128 124 121 118 114
197 218 239 236 238 244 219 205 212 211 239 221 176 197 231 208 153 142 144 150 156 162 163 162 160 162 163 163 163 162 162 159 157 155 149 146 146 146 144 141 139 137 135 133 130 125 122 118 115
190 227 235 229 226 234 201 218 226 215 212 217 207 208 215 144 146 149 155 162 169 172 170 165 161 160 159 160 163 162 161 159 156 152 148 143 139 139 140 141 143 141 139 136 133 126 120 115 112
205 230 238 235 227 231 232 230 226 228 235 233 241 278 137 148 162 170 175 176 179 181 178 172 166 162 160 162 161 161 158 156 150 147 142 136 134 135 138 144 145 144 140 136 132 123 111 102 101
225 238 250 254 252 253 256 255 233 223 241 225 215 196 165 170 176 184 187 187 186 182 179 175 169 165 163 160 158 156 152 149 146 145 141 138 135 135 136 139 140 135 131 118 113 102 100 102 104
247 252 255 261 262 262 259 263 251 235 243 238 217 186 180 186 190 193 193 193 188 184 183 177 171 167 165 159 160 155 152 151 151 151 149 145 139 136 138 133 131 125 120 110 105 104 104 103 107
246 257 260 265 268 267 269 259 258 256 258 259 233 195 193 196 199 200 199 195 190 190 186 180 174 171 167 161 164 162 159 158 156 156 158 156 150 149 147 142 138 134 130 125 118 114 111 105 105
255 270 274 270 263 262 264 267 256 257 253 243 217 205 204 205 202 199 199 198 195 193 190 182 179 175 169 169 168 166 163 161 161 163 165 164 161 158 155 150 147 145 144 141 136 131 122 113 115
265 275 274 256 251 247 266 269 247 249 237 232 224 217 212 213 208 206 202 201 198 194 191 186 182 178 175 173 170 169 168 165 167 169 170 170 167 165 162 157 158 159 153 143 131 120 114 110 110
260 257 259 249 232 233 226 257 257 243 225 235 232 223 218 217 214 212 207 204 199 195 191 189 186 183 181 177 173 171 171 170 171 172 174 175 173 170 165 164 169 164 154 145 135 127 117 117 123
236 245 254 271 231 231 226 259 272 241 232 242 239 229 222 220 220 214 206 204 200 197 193 191 188 185 183 179 175 171 172 175 175 175 177 180 178 175 171 174 174 163 152 149 149 132 135 145 145
244 251 258 259 253 254 252 263 274 263 240 240 240 237 230 223 223 213 206 202 200 198 195 194 191 186 182 178 173 171 173 179 179 180 182 181 182 179 175 175 170 162 152 155 151 140 125 137 143
263 269 269 273 277 271 264 267 271 267 251 243 240 237 234 232 226 212 206 200 196 197 196 196 193 188 183 184 184 184 188 187 186 186 184 184 183 180 178 175 168 167 169 169 157 141 136 128 124
260 268 272 282 278 273 269 270 269 259 249 238 236 236 233 236 227 212 203 200 198 199 198 198 197 191 188 190 189 188 180 182 183 183 186 188 185 183 185 177 176 173 168 165 165 151 141 137 145
262 252 260 273 296 275 273 276 257 253 247 243 238 237 236 230 226 216 205 201 199 201 201 201 200 195 193 187 179 169 162 162 179 191 193 192 189 186 186 183 178 176 176 179 178 169 159 161 174
272 246 257 272 282 279 256 282 272 253 250 246 239 234 234 233 226 218 209 204 204 205 202 201 201 198 194 186 184 182 187 193 197 191 190 186 188 188 188 184 181 180 181 180 182 177 167 156 171
252 258 260 264 265 277 244 251 277 245 246 245 237 229 232 229 220 214 211 208 210 207 202 201 200 198 195 191 190 190 196 197 182 173 180 186 189 189 189 186 184 184 185 183 179 175 176 173 169
265 299 284 267 241 257 228 218 275 237 231 245 238 233 231 224 218 217 215 210 212 207 204 200 199 199 195 195 194 194 196 189 178 181 187 190 190 191 191 188 188 187 187 185 183 180 181 183 175
264 3 320 320 235 248 224 224 254 251 245 239 242 241 235 228 223 222 218 212 213 209 205 202 199 201 197 197 199 199 198 193 192 189 190 188 189 194 194 191 190 189 187 183 178 179 184 183 181
248 193 216 247 241 282 254 236 254 262 265 266 265 269 269 252 234 226 220 217 217 214 208 203 201 202 198 199 202 201 198 197 198 193 190 192 195 195 188 189 190 187 183 182 179 180 185 184 188
261 222 225 266 285 268 256 273 295 292 314 318 318 314 294 278 258 244 235 224 219 215 209 205 203 203 199 200 201 201 199 198 198 193 191 192 191 185 182 186 187 185 182 180 178 185 185 183 190
223 209 124 231 264 262 266 260 266 309 316 332 337 328 311 297 281 264 254 238 229 221 212 207 204 204 200 198 199 201 200 200 197 190 192 192 187 180 180 183 184 182 182 180 180 182 183 182 187
239 227 211 235 252 260 280 276 238 283 334 336 330 328 321 312 295 283 273 253 237 224 211 206 205 203 201 198 198 196 198 196 192 193 194 191 185 181 182 183 182 183 183 182 183 185 181 184 184
232 228 190 240 267 250 270 273 293 346 346 339 333 332 329 321 312 303 290 272 245 224 212 206 203 202 202 198 195 195 194 191 191 194 192 187 184 184 182 179 180 183 183 183 184 185 183 185 185
Height
1490 1492 1494 1496 1500 1505 1500 1489 1483 1480 1477 1473 1473 1474 1473 1474 1476 1476 1466 1465 1467 1470 1475 1480 1485 1489 1493 1497 1500 1503 1505 1508 1511 1513 1515 1517 1518 1520 1522 1524 1525 1526 1527 1529 1530 1530 1531 1532 1533
1488 1490 1493 1494 1500 1502 1492 1482 1478 1472 1470 1470 1470 1470 1470 1468 1467 1465 1463 1463 1466 1470 1475 1479 1484 1488 1492 1496 1499 1502 1505 1508 1510 1512 1515 1517 1518 1520 1522 1524 1525 1526 1528 1529 1530 1531 1532 1533 1534
1486 1488 1490 1491 1493 1486 1480 1473 1470 1468 1469 1469 1469 1468 1468 1465 1463 1462 1462 1463 1466 1470 1474 1479 1484 1488 1492 1495 1499 1502 1505 1507 1510 1512 1515 1517 1519 1520 1522 1524 1525 1527 1528 1529 1531 1532 1533 1534 1535
1483 1486 1486 1488 1479 1472 1469 1467 1466 1467 1467 1467 1467 1466 1465 1463 1462 1461 1461 1463 1466 1469 1474 1478 1483 1487 1491 1495 1498 1501 1504 1507 1509 1512 1514 1517 1519 1521 1522 1524 1525 1527 1528 1530 1531 1533 1534 1535 1536
1481 1481 1483 1478 1468 1465 1465 1465 1465 1466 1465 1464 1465 1464 1461 1461 1460 1459 1460 1462 1465 1469 1474 1478 1483 1487 1491 1494 1498 1501 1504 1506 1509 1512 1514 1516 1518 1520 1522 1524 1526 1527 1529 1530 1532 1533 1534 1536 1537
1478 1476 1477 1466 1460 1461 1461 1462 1464 1464 1463 1463 1464 1462 1459 1459 1458 1458 1460 1462 1466 1469 1473 1478 1483 1487 1490 1494 1497 1500 1503 1506 1509 1512 1514 1516 1518 1520 1522 1524 1526 1528 1529 1531 1533 1534 1535 1536 1537
1473 1472 1465 1460 1457 1458 1457 1459 1460 1460 1460 1460 1461 1460 1457 1457 1458 1458 1460 1463 1466 1470 1474 1478 1482 1486 1490 1493 1497 1500 1503 1506 1508 1511 1514 1516 1518 1520 1522 1524 1526 1528 1530 1531 1533 1535 1536 1537 1538
1467 1468 1461 1457 1455 1453 1453 1454 1454 1456 1455 1456 1457 1457 1455 1455 1456 1458 1460 1463 1467 1470 1474 1477 1481 1485 1489 1492 1496 1499 1502 1505 1508 1511 1513 1515 1518 1520 1522 1524 1526 1528 1530 1532 1534 1535 1536 1538 1539
1463 1464 1452 1449 1452 1451 1450 1450 1451 1451 1451 1451 1452 1452 1452 1453 1454 1456 1459 1463 1466 1469 1473 1476 1480 1484 1487 1491 1495 1498 1501 1504 1507 1510 1512 1515 1517 1520 1522 1524 1527 1529 1531 1532 1534 1536 1537 1538 1540
1457 1452 1442 1445 1447 1447 1447 1447 1448 1448 1448 1448 1448 1449 1450 1451 1452 1454 1456 1458 1461 1465 1470 1474 1478 1481 1485 1489 1493 1497 1500 1503 1506 1509 1511 1514 1517 1519 1522 1524 1527 1529 1531 1533 1535 1536 1538 1539 1540
1451 1445 1442 1444 1445 1445 1445 1445 1445 1445 1444 1444 1444 1445 1446 1448 1450 1452 1453 1455 1457 1461 1466 1470 1475 1479 1483 1487 1491 1494 1498 1501 1504 1507 1510 1513 1516 1519 1521 1524 1526 1529 1531 1533 1535 1536 1538 1540 1541
1448 1442 1442 1442 1443 1443 1442 1442 1441 1440 1438 1441 1442 1442 1443 1444 1445 1447 1450 1453 1456 1460 1464 1468 1472 1476 1481 1485 1488 1492 1495 1499 1502 1506 1509 1512 1515 1518 1521 1523 1526 1528 1530 1533 1535 1537 1538 1540 1542
1445 1441 1441 1440 1440 1440 1439 1438 1437 1434 1435 1437 1438 1438 1439 1440 1442 1444 1448 1451 1454 1457 1461 1465 1469 1473 1478 1482 1486 1490 1493 1497 1501 1504 1508 1511 1514 1517 1520 1523 1525 1528 1530 1533 1535 1537 1539 1540 1542
1442 1440 1438 1437 1437 1437 1436 1433 1433 1427 1431 1433 1433 1433 1435 1436 1438 1441 1444 1447 1450 1453 1458 1462 1466 1471 1475 1479 1483 1487 1491 1495 1499 1503 1506 1510 1513 1516 1519 1522 1525 1527 1530 1532 1535 1537 1538 1540 1541
1441 1440 1436 1433 1433 1433 1434 1429 1424 1424 1427 1428 1428 1429 1430 1432 1435 1436 1438 1441 1445 1449 1454 1459 1463 1468 1472 1477 1481 1485 1489 1493 1497 1501 1505 1509 1512 1515 1518 1521 1524 1527 1529 1532 1534 1536 1538 1540 1541
1439 1439 1436 1429 1429 1428 1434 1425 1418 1421 1422 1422 1423 1424 1426 1427 1430 1432 1435 1438 1442 1446 1450 1455 1460 1464 1469 1474 1479 1483 1487 1491 1495 1499 1503 1507 1510 1514 1517 1520 1523 1526 1528 1531 1533 1535 1537 1539 1540
1439 1439 1434 1429 1426 1426 1428 1421 1415 1416 1418 1417 1418 1419 1420 1422 1425 1428 1431 1435 1438 1443 1447 1451 1456 1460 1465 1471 1476 1481 1485 1489 1493 1497 1501 1505 1508 1512 1515 1518 1522 1524 1527 1530 1532 1534 1536 1538 1539
1438 1436 1432 1429 1425 1424 1423 1419 1414 1413 1413 1412 1413 1414 1415 1416 1418 1422 1426 1430 1434 1439 1443 1447 1451 1457 1462 1468 1473 1478 1482 1486 1490 1494 1498 1502 1506 1510 1513 1516 1520 1522 1525 1528 1530 1533 1535 1537 1538
1435 1434 1431 1426 1423 1423 1420 1415 1410 1409 1409 1408 1408 1409 1410 1410 1413 1418 1421 1425 1430 1434 1439 1443 1447 1452 1457 1462 1467 1471 1476 1481 1485 1490 1495 1499 1503 1507 1510 1514 1517 1520 1523 1525 1528 1531 1533 1535 1536
1434 1434 1430 1425 1421 1420 1417 1411 1406 1403 1402 1401 1402 1402 1404 1405 1408 1412 1416 1419 1423 1428 1433 1437 1441 1446 1451 1456 1462 1467 1472 1477 1482 1487 1491 1495 1499 1503 1507 1511 1514 1517 1520 1523 1526 1528 1530 1533 1535
1432 1432 1428 1425 1420 1417 1416 1408 1400 1396 1395 1394 1395 1396 1397 1399 1402 1405 1409 1413 1417 1421 1425 1430 1435 1440 1445 1451 1458 1464 1469 1474 1478 1482 1486 1490 1495 1499 1503 1507 1511 1514 1517 1520 1523 1525 1528 1530 1532
1428 1424 1423 1423 1423 1420 1418 1414 1398 1393 1391 1389 1389 1390 1391 1393 1396 1399 1402 1406 1410 1414 1419 1424 1429 1434 1440 1446 1451 1456 1460 1465 1469 1474 1480 1486 1491 1495 1500 1504 1507 1511 1514 1517 1520 1523 1525 1527 1529
1424 1421 1421 1421 1422 1422 1417 1418 1401 1391 1388 1385 1384 1384 1385 1387 1389 1393 1396 1399 1404 1408 1413 1418 1423 1428 1434 1439 1444 1450 1455 1460 1466 1471 1477 1482 1486 1491 1495 1499 1503 1507 1510 1513 1517 1519 1522 1524 1526
1421 1421 1420 1420 1421 1423 1414 1415 1401 1391 1385 1381 1379 1379 1380 1381 1384 1387 1390 1393 1397 1402 1406 1411 1416 1421 1427 1432 1438 1443 1449 1454 1460 1465 1471 1476 1481 1485 1490 1494 1498 1502 1506 1509 1513 1516 1519 1521 1523
1422 1427 1429 1428 1426 1420 1408 1407 1396 1384 1379 1377 1375 1375 1375 1377 1379 1381 1384 1387 1390 1395 1399 1404 1409 1414 1419 1425 1430 1436 1442 1448 1453 1459 1465 1470 1474 1479 1483 1488 1492 1497 1501 1505 1509 1512 1514 1517 1519
1423 1426 1430 1428 1423 1413 1405 1401 1389 1379 1376 1374 1373 1372 1372 1373 1374 1376 1378 1381 1384 1387 1391 1396 1401 1406 1412 1418 1423 1429 1436 1442 1447 1453 1458 1463 1468 1473 1478 1483 1487 1492 1496 1500 1504 1507 1510 1513 1515
1424 1424 1423 1425 1422 1417 1407 1398 1386 1377 1374 1373 1372 1371 1371 1370 1370 1371 1373 1375 1377 1380 1384 1388 1393 1398 1404 1410 1416 1422 1428 1434 1440 1446 1452 1458 1463 1468 1473 1478 1482 1487 1491 1495 1499 1502 1505 1508 1510
1423 1422 1425 1426 1423 1415 1404 1397 1390 1379 1375 1373 1372 1370 1369 1368 1367 1367 1367 1369 1371 1373 1376 1381 1386 1391 1396 1403 1409 1415 1421 1427 1433 1440 1445 1451 1456 1462 1467 1472 1477 1481 1485 1489 1493 1496 1500 1503 1505
1424 1424 1424 1425 1423 1418 1408 1394 1380 1378 1375 1375 1372 1370 1368 1365 1363 1362 1362 1363 1365 1367 1370 1374 1378 1384 1389 1395 1401 1408 1414 1420 1427 1433 1439 1445 1450 1456 1461 1466 1471 1475 1479 1483 1487 1491 1494 1497 1500
1423 1423 1424 1428 1424 1419 1413 1396 1377 1376 1375 1374 1372 1369 1366 1363 1360 1359 1358 1358 1359 1361 1363 1367 1371 1376 1382 1388 1394 1401 1407 1414 1420 1426 1432 1438 1444 1449 1455 1460 1464 1469 1473 1477 1481 1485 1488 1492 1494